Waarnemingen

Advertentie
Mijn weer
Llerena, Spanje (8336): temperatuur & dauwpunt: 17.02.2020 22:00:00 - 23.02.2020 22:00:00 (CET)Llerena, Spanje (8336): windsnelheid & windstoten: 17.02.2020 22:00:00 - 23.02.2020 22:00:00 (CET)Llerena, Spanje (8336): windrichting: 17.02.2020 22:00:00 - 23.02.2020 22:00:00 (CET)Llerena, Spanje (8336): luchtdruk: 17.02.2020 22:00:00 - 23.02.2020 22:00:00 (CET)Llerena, Spanje (8336): zicht: 17.02.2020 22:00:00 - 23.02.2020 22:00:00 (CET)Llerena, Spanje (8336): Zonneschijnduur: 17.02.2020 22:00:00 - 23.02.2020 22:00:00 (CET)Llerena, Spanje (8336): neerslag: 17.02.2020 22:00:00 - 23.02.2020 22:00:00 (CET)
Datum & Tijd tt [°C] td [°C] ff [km/u] ff [kn] fx [km/u] fx [kn] dd ppp [hPa] vv [km] sd [min] rr [mm]
23.02.2020 22:00:00 - - - - - - - - - - -
23.02.2020 21:00:00 12,4 0,4 9 5 16 8 ZZW 1030,6 20 0 0,0
23.02.2020 20:00:00 13,4 -1,4 10 5 13 7 Z 1030,5 7 0 0,0
23.02.2020 19:00:00 16,2 0,0 9 5 10 6 ZO 1029,4 20 47 -
23.02.2020 18:00:00 19,7 0,2 9 5 16 9 OZO 1028,5 6 60 0,0
23.02.2020 17:00:00 20,7 -2,5 13 7 21 11 O 1028,2 20 60 0,0
23.02.2020 16:00:00 21,0 -1,0 12 7 19 11 OZO 1028,2 20 60 0,0
23.02.2020 15:00:00 20,8 1,1 13 7 23 12 OZO 1028,9 20 60 0,0
23.02.2020 14:00:00 20,6 0,9 16 8 23 12 O 1029,9 20 60 0,0
23.02.2020 13:00:00 19,4 4,6 13 7 19 10 O 1030,8 20 60 -
23.02.2020 12:00:00 18,0 3,8 12 6 21 11 O 1031,4 20 60 0,0
23.02.2020 11:00:00 16,4 4,8 16 9 21 11 O 1032,0 20 60 0,0
23.02.2020 10:00:00 14,2 3,9 16 9 19 11 O 1032,3 20 60 0,0
23.02.2020 09:00:00 12,7 1,9 9 5 19 11 O 1032,4 20 50 0,0
23.02.2020 08:00:00 12,9 -0,5 19 10 22 12 OZO 1031,6 20 0 0,0
23.02.2020 07:00:00 11,3 1,3 11 6 14 8 OZO 1031,8 20 0 -
23.02.2020 06:00:00 11,0 1,3 4 2 13 7 W 1031,7 20 0 0,0
23.02.2020 05:00:00 8,3 1,5 10 5 12 7 ZO 1032,4 20 0 0,0
23.02.2020 04:00:00 9,4 1,5 4 2 12 7 O 1032,2 20 0 0,0
23.02.2020 03:00:00 13,3 1,1 11 6 18 10 O 1031,3 20 0 0,0
23.02.2020 02:00:00 13,1 1,7 11 6 16 9 O 1031,4 20 0 0,0
23.02.2020 01:00:00 12,7 1,9 13 7 20 11 OZO 1031,7 20 0 -
23.02.2020 00:00:00 12,1 1,7 14 7 19 10 OZO 1031,9 20 0 0,0
22.02.2020 23:00:00 12,1 1,7 9 5 11 6 OZO 1032,0 20 0 0,0
22.02.2020 22:00:00 11,3 3,0 9 5 11 6 ZO 1031,9 20 0 0,0
22.02.2020 21:00:00 12,0 3,9 8 4 10 6 O 1031,5 20 0 0,0
22.02.2020 20:00:00 13,8 4,1 7 4 10 5 OZO 1030,7 20 0 0,0
22.02.2020 19:00:00 16,7 4,6 6 4 13 7 ZO 1029,5 20 44 -
22.02.2020 18:00:00 19,5 3,2 11 6 18 10 ONO 1028,7 20 60 0,0
22.02.2020 17:00:00 20,4 -0,3 11 6 23 13 O 1028,4 20 60 0,0
22.02.2020 16:00:00 20,5 3,2 13 7 20 11 O 1028,2 20 60 0,0
22.02.2020 15:00:00 20,2 5,5 12 6 19 10 O 1028,6 20 60 0,0
22.02.2020 14:00:00 18,9 4,3 13 7 19 10 O 1029,7 20 60 0,0
22.02.2020 13:00:00 17,7 5,3 14 8 21 12 O 1030,6 20 60 -
22.02.2020 12:00:00 16,7 6,8 13 7 19 10 O 1031,2 20 60 0,0
22.02.2020 11:00:00 14,7 5,1 10 6 21 11 O 1031,2 20 60 0,0
22.02.2020 10:00:00 12,6 2,5 15 8 21 11 O 1031,3 20 60 0,0
22.02.2020 09:00:00 10,5 2,1 15 8 22 12 OZO 1031,5 20 49 0,0
22.02.2020 08:00:00 9,1 1,9 15 8 21 11 OZO 1031,1 20 0 0,0
22.02.2020 07:00:00 9,2 3,0 15 8 20 11 O 1030,6 20 0 -
22.02.2020 06:00:00 10,2 2,9 11 6 13 7 O 1029,9 20 0 0,0
22.02.2020 05:00:00 9,8 1,9 8 4 10 6 OZO 1029,8 20 0 0,0
22.02.2020 04:00:00 9,2 3,8 9 5 11 6 ZO 1030,2 20 0 0,0
22.02.2020 03:00:00 9,7 4,5 7 4 9 5 ZO 1030,1 20 0 0,0
22.02.2020 02:00:00 10,0 4,8 8 4 8 5 ZO 1030,3 20 0 0,0
22.02.2020 01:00:00 10,6 5,6 4 2 6 3 ZO 1030,1 20 0 -
22.02.2020 00:00:00 11,1 5,6 4 2 5 3 ZO 1030,2 20 0 0,0
21.02.2020 23:00:00 11,6 5,9 2 1 8 4 ZW 1029,7 20 0 0,0
21.02.2020 22:00:00 12,3 5,6 6 3 12 7 ZW 1028,9 20 0 0,0
21.02.2020 21:00:00 11,9 5,1 10 5 14 8 ZO 1028,5 20 0 0,0
21.02.2020 20:00:00 13,2 4,8 10 5 13 7 ZO 1027,8 20 0 0,0
21.02.2020 19:00:00 16,8 6,1 4 2 11 6 ZO 1026,3 20 42 -
21.02.2020 18:00:00 18,4 6,5 6 4 14 7 OZO 1025,6 20 60 0,0
21.02.2020 17:00:00 18,8 5,6 13 7 19 11 OZO 1025,3 20 60 0,0
21.02.2020 16:00:00 19,0 4,6 11 6 20 11 O 1025,3 20 60 0,0
21.02.2020 15:00:00 18,9 6,1 11 6 21 11 OZO 1025,4 20 60 0,0
21.02.2020 14:00:00 17,6 6,4 14 8 24 13 O 1026,2 20 60 0,0
21.02.2020 13:00:00 16,2 6,8 13 7 21 12 O 1027,1 20 60 -
21.02.2020 12:00:00 14,8 7,3 13 7 19 10 O 1027,7 20 60 0,0
21.02.2020 11:00:00 13,4 7,1 15 8 20 11 O 1027,9 20 60 0,0
21.02.2020 10:00:00 12,5 6,5 14 7 19 10 O 1027,6 20 60 0,0
21.02.2020 09:00:00 9,0 4,6 11 6 15 8 O 1027,9 20 39 0,0
21.02.2020 08:00:00 8,3 3,9 11 6 16 9 O 1027,3 20 0 0,0
21.02.2020 07:00:00 8,0 3,2 12 6 14 8 OZO 1026,8 20 0 -
21.02.2020 06:00:00 6,9 3,0 7 4 14 8 O 1026,8 20 0 0,0
21.02.2020 05:00:00 11,6 3,8 6 3 14 7 ZZO 1024,9 20 0 0,0
21.02.2020 04:00:00 10,8 3,9 3 2 13 7 ONO 1025,2 20 0 0,0
21.02.2020 03:00:00 8,4 3,2 5 3 10 5 OZO 1026,3 20 0 0,0
21.02.2020 02:00:00 11,7 2,5 7 4 20 11 O 1025,1 20 0 0,0
21.02.2020 01:00:00 11,5 4,5 14 8 22 12 OZO 1025,0 20 0 -
21.02.2020 00:00:00 10,5 5,3 11 6 17 9 OZO 1025,4 20 0 0,0
20.02.2020 23:00:00 10,2 5,3 11 6 14 8 OZO 1025,2 20 0 0,0
20.02.2020 22:00:00 10,2 5,3 8 4 16 8 O 1025,1 20 0 0,0
20.02.2020 21:00:00 10,4 5,3 6 3 12 7 O 1024,7 20 0 0,0
20.02.2020 20:00:00 12,2 6,4 6 3 17 9 ONO 1023,9 20 0 0,0
20.02.2020 19:00:00 14,1 7,1 7 4 17 9 NO 1022,7 20 41 -
20.02.2020 18:00:00 15,6 6,2 11 6 22 12 ONO 1021,9 20 59 0,0
20.02.2020 17:00:00 16,3 6,4 12 6 24 13 NO 1021,6 20 60 0,0
20.02.2020 16:00:00 16,3 7,3 13 7 25 13 O 1021,4 20 60 0,0
20.02.2020 15:00:00 16,0 6,4 14 7 25 13 OZO 1021,6 20 60 0,0
20.02.2020 14:00:00 15,4 7,7 13 7 26 14 O 1022,3 20 60 0,0
20.02.2020 13:00:00 14,2 7,3 18 10 26 14 O 1023,3 20 60 -
20.02.2020 12:00:00 13,2 8,1 16 9 26 14 OZO 1023,9 20 60 0,0
20.02.2020 11:00:00 11,6 8,1 12 7 19 10 O 1024,5 19 60 0,0
20.02.2020 10:00:00 9,9 7,3 14 8 21 11 O 1024,8 20 60 0,0
20.02.2020 09:00:00 7,6 5,5 13 7 16 9 O 1025,2 20 41 0,0
20.02.2020 08:00:00 6,3 4,1 10 5 13 7 O 1025,5 20 0 0,0
20.02.2020 07:00:00 7,9 4,3 11 6 28 15 O 1025,1 20 0 -
20.02.2020 06:00:00 8,8 5,0 18 10 32 18 ZZO 1024,9 20 0 0,0
20.02.2020 05:00:00 8,8 5,3 17 9 31 17 ZZO 1025,1 20 0 0,0
20.02.2020 04:00:00 9,9 6,4 21 11 30 16 Z 1025,3 20 0 0,0
20.02.2020 03:00:00 9,5 7,0 20 11 26 14 Z 1025,9 20 0 0,0
20.02.2020 02:00:00 8,4 5,1 6 3 12 6 Z 1026,9 20 0 0,0
20.02.2020 01:00:00 8,4 5,5 7 4 11 6 O 1027,4 20 0 -
20.02.2020 00:00:00 9,7 5,9 9 5 14 8 O 1027,4 20 0 0,0
19.02.2020 23:00:00 10,0 5,8 12 6 18 10 OZO 1027,8 20 0 0,0
19.02.2020 22:00:00 10,5 5,6 9 5 13 7 O 1027,8 20 0 0,0
19.02.2020 21:00:00 10,0 5,6 8 4 11 6 O 1028,2 20 0 0,0
19.02.2020 20:00:00 12,1 5,9 6 3 16 9 NO 1027,7 20 0 0,0
19.02.2020 19:00:00 13,6 7,1 7 4 22 12 NNO 1027,3 20 32 -
19.02.2020 18:00:00 15,6 6,5 15 8 25 13 NO 1026,6 20 60 0,0
19.02.2020 17:00:00 16,5 7,1 9 5 21 11 NNO 1026,6 20 55 0,0
19.02.2020 16:00:00 16,1 6,8 9 5 19 11 NO 1027,0 20 55 0,0
19.02.2020 15:00:00 16,1 7,0 11 6 21 12 O 1027,5 20 57 0,0
19.02.2020 14:00:00 15,5 8,3 12 7 21 11 O 1028,6 20 60 0,0
19.02.2020 13:00:00 14,3 8,9 12 6 19 11 ONO 1029,7 20 60 -
19.02.2020 12:00:00 13,0 8,3 10 5 15 8 ONO 1030,8 18 60 0,0
19.02.2020 11:00:00 11,4 7,8 10 5 17 9 ONO 1031,0 11 60 0,0
19.02.2020 10:00:00 10,5 7,6 15 8 22 12 O 1030,8 20 60 0,0
19.02.2020 09:00:00 8,1 6,5 15 8 26 14 OZO 1030,9 11 28 0,0
19.02.2020 08:00:00 6,8 5,6 14 8 20 11 OZO 1031,1 8 0 0,0
19.02.2020 07:00:00 7,2 5,8 15 8 21 12 O 1030,6 8 0 -
19.02.2020 06:00:00 7,1 5,5 10 6 15 8 O 1030,7 8 0 0,0
19.02.2020 05:00:00 6,9 4,8 11 6 16 9 O 1030,7 14 0 0,0
19.02.2020 04:00:00 7,3 5,0 11 6 14 8 O 1030,6 20 0 0,0
19.02.2020 03:00:00 7,4 4,3 6 3 9 5 ONO 1031,0 20 0 0,0
19.02.2020 02:00:00 7,5 4,5 2 1 11 6 ONO 1031,2 20 0 0,0
19.02.2020 01:00:00 8,2 5,0 6 3 12 7 NNW 1030,9 20 0 -
19.02.2020 00:00:00 8,9 5,3 3 2 7 4 NO 1030,8 20 0 0,0
18.02.2020 23:00:00 9,0 5,1 3 2 10 5 O 1030,7 20 0 0,0
18.02.2020 22:00:00 9,6 6,7 3 1 9 5 NNO 1030,3 20 0 0,0
18.02.2020 21:00:00 10,5 7,1 4 2 15 8 NNO 1029,8 20 0 0,0
18.02.2020 20:00:00 10,8 7,4 7 4 14 8 NNW 1029,2 20 0 0,0
18.02.2020 19:00:00 12,4 7,8 9 5 17 9 NNW 1028,4 20 22 -
18.02.2020 18:00:00 14,3 8,7 11 6 16 8 NNW 1027,6 20 36 0,0
18.02.2020 17:00:00 14,5 8,9 6 3 12 7 N 1027,3 20 45 0,0
18.02.2020 16:00:00 14,7 8,7 5 3 12 7 N 1027,5 20 44 0,0
18.02.2020 15:00:00 13,7 8,8 5 3 16 9 NNO 1028,1 20 0 0,0
18.02.2020 14:00:00 13,5 8,5 5 3 12 6 NNW 1028,7 20 16 0,0
18.02.2020 13:00:00 12,3 7,6 6 3 13 7 NO 1029,6 20 58 -
18.02.2020 12:00:00 10,8 6,4 6 3 10 5 ONO 1030,3 20 17 0,0
18.02.2020 11:00:00 8,0 4,6 6 3 11 6 N 1031,1 20 20 0,0
18.02.2020 10:00:00 7,3 4,3 5 3 11 6 NNO 1030,9 20 31 0,0
18.02.2020 09:00:00 6,2 4,1 3 2 8 4 ONO 1030,8 20 10 0,0
18.02.2020 08:00:00 5,9 3,8 3 2 8 4 NNO 1030,6 20 0 0,0
18.02.2020 07:00:00 6,3 4,8 2 1 6 3 W 1030,4 20 0 -
18.02.2020 06:00:00 6,9 5,5 1 1 10 6 NNO 1030,1 20 0 0,0
18.02.2020 05:00:00 7,7 6,4 5 3 8 4 NNW 1029,6 13 0 0,0
18.02.2020 04:00:00 8,4 6,7 6 3 13 7 NNW 1030,0 20 0 0,0
18.02.2020 03:00:00 9,2 7,3 3 2 11 6 NNO 1030,0 20 0 0,0
18.02.2020 02:00:00 9,8 8,1 4 2 8 4 N 1030,5 20 0 0,0
18.02.2020 01:00:00 10,5 8,8 3 2 11 6 NNO 1030,3 20 0 -
18.02.2020 00:00:00 10,8 9,4 5 3 11 6 NO 1030,5 20 0 0,0
17.02.2020 23:00:00 11,2 9,9 4 2 11 6 N 1030,6 13 0 0,0
17.02.2020 22:00:00 11,3 10,0 3 2 8 5 N 1030,1 14 0 0,0

tt = temperatuur
td = dauwpunt
ff = windsnelheid
fx = windstoten
dd = windrichting
ppp = luchtdruk
vv = zicht
sd = Zonneschijnduur
rr = neerslag

Weerstations in de omgeving